Regional Weather Roundup
Issued by NWS

Home | Current Version | Previous Version | Graphics & Text | Print | Product List | Glossary On
Versions: 1 2 3 4 5 6 7 8 9 10 11 12 13 14 15 16 17 18 19 20 21 22 23 24 25 26 27 28 29 30 31 32 33 34 35 36 37 38 39 40 41 42 43 44 45 46 47 48 49 50
000
ASUS45 KBOU 231307
RWRCO

WEATHER ROUNDUP FOR COLORADO
NATIONAL WEATHER SERVICE DENVER/BOULDER CO
600 AM MST MON JAN 23 2017

NOTE: "FAIR" INDICATES FEW OR NO CLOUDS BELOW 12000 FEET WITH NO
SIGNIFICANT WEATHER AND/OR OBSTRUCTIONS TO VISIBILITY.

COZ001>005-013-030-031-231400-
...NORTHWEST COLORADO...

CITY           SKY/WX    TMP DP  RH WIND       PRES   REMARKS
CRAIG          CLOUDY    32  22  66 N8G29     29.66F WCI  25
HAYDEN         CLOUDY    27  18  69 SE13      29.66F WCI  16
MEEKER         CLOUDY    33  25  72 SW8       29.67F WCI  26
MOUNT WERNER   NOT AVBL
STEAMBOAT SPGS CLOUDY    22  20  91 NE10      29.66F WCI  11
WALDEN           N/A     21  18  86 W6        29.65F WCI  14
$$

COZ006>008-011-231400-
...WEST CENTRAL VALLEYS...

CITY           SKY/WX    TMP DP  RH WIND       PRES   REMARKS
GRAND JUNCTION CLOUDY    37  30  75 SE14      29.72F
MONTROSE       FAIR      33  26  75 SW12      29.77F WCI  24
EAGLE          LGT SNOW  25  23  92 E6        29.75F FOG     WCI  18
RIFLE          FLURRIES  31  29  92 SE5       29.74F WCI  26
DELTA          CLOUDY    35  30  80 NE10      29.78F WCI  27
NUCLA          MOCLDY    34  27  75 S6        29.82F WCI  29
$$

COZ017>023-064>068-231400-
...SOUTHWEST COLORADO...

CITY           SKY/WX    TMP DP  RH WIND       PRES   REMARKS
DURANGO        CLOUDY    25  22  88 CALM      29.94F
CORTEZ         CLOUDY    31  27  85 S8        29.90F WCI  23
PAGOSA SPRINGS LGT SNOW  25  24  99 CALM      29.93F
TELLURIDE      NOT AVBL
WOLF CREEK PAS CLOUDY    10   9  92 MISG      29.87S
$$

COZ009-010-012-014-032>034-037-058>063-231400-
...CENTRAL COLORADO...

CITY           SKY/WX    TMP DP  RH WIND       PRES   REMARKS
ASPEN          CLOUDY    25  22  88 S6        29.71S WCI  18
BUENA VISTA    LGT SNOW  24  21  89 W7        29.74F WCI  16
COPPER MTN     HVY SNOW  23  16  74 MISG      29.68F VSB 1/4
BERTHOUD PASS  CLOUDY    14   3  62 MISG      29.62F
COTTONWOOD PAS LGT SNOW  23  19  86 S6G21     29.72S WCI  16
GUNNISON       FLURRIES  18  16  92 CALM      29.81F
KREMMLING      FLURRIES  34  27  75 W12       29.69F WCI  25
LEADVILLE      LGT SNOW  22  19  89 NE6       29.68F VSB 3/4 WCI  14
MONARCH PASS   CLOUDY    14  10  85 W12G31    29.82S WCI   0
SALIDA         CLOUDY    31  19  60 S10G22    29.82S WCI  23
SUNLIGHT       CLOUDY    19  18  93 SW21G37   29.71F WCI   3
WILKERSON PASS LGT SNOW N/A N/A N/A SW15G23   29.72F VSB 3/4
$$

COZ069>075-231400-
...SAN LUIS VALLEY/SANGRE DE CRISTO MOUNTAINS...

CITY           SKY/WX    TMP DP  RH WIND       PRES   REMARKS
ALAMOSA        FAIR      23  18  81 S18       29.84F WCI   9
LA VETA PASS   CLOUDY    21  19  93 NE26G47   29.77F FOG     WCI   4
SAGUACHE       FAIR      10   7  85 N3        29.85S
$$

COZ035-036-038>040-231400-
...NORTHERN COLORADO FRONT RANGE...

CITY           SKY/WX    TMP DP  RH WIND       PRES   REMARKS
DENVER INTL AP FAIR      25  17  72 SW7       29.64F WCI  17
DMNS CITY PARK   N/A     27  17  65 E8        29.66R WCI  19
AURORA         PTCLDY    24  17  74 S10       29.64F WCI  14
FRONT RANGE AP NOT AVBL
ERIE MUNI ARPT MOCLDY    27  21  80 SW3       29.66F
BOULDER MUN AP CLOUDY    30  19  64 S3        29.65F
CENTENNIAL     FAIR      27  15  61 CALM      29.65F
BROOMFIELD     MOCLDY    30  18  59 CALM      29.64F
FORT COLLINS   FAIR      19  14  79 SW5       29.66F WCI  13
LONGMONT       MOCLDY    27  22  80 CALM      29.68F
$$

COZ041-046-047-076>085-087-088-231400-
...PIKES PEAK/PALMER DIVIDE AND SOUTHERN FOOTHILLS...

CITY           SKY/WX    TMP DP  RH WIND       PRES   REMARKS
COLO. SPRINGS  FAIR      33  17  51 CALM      29.68F
A. F. ACADEMY  FAIR      31  18  58 N5        29.68F WCI  26
SCHRIEVER AFB  NOT AVBL
ELLICOTT       FAIR     N/A N/A N/A NW8       29.69F
FALCON         FAIR      31  17  56 SW8       29.71F WCI  24
FORT CARSON    NOT AVBL
LIMON          FAIR      18  17  96 N5        29.67S WCI  11
MONUMENT HILL  FAIR      32  19  59 SW14      29.69F WCI  22
TRINIDAD       FAIR      40  24  53 W18       29.77R
$$

COZ042>045-048>051-090-091-231400-
...NORTHEAST COLORADO...

CITY           SKY/WX    TMP DP  RH WIND       PRES   REMARKS
GREELEY ARPT   FAIR      21  18  88 NW5       29.66F WCI  15
AKRON          FAIR      28  20  71 S10       29.64F WCI  19
BURLINGTON     FAIR      32  24  72 S10       29.70F WCI  24
WRAY           FAIR      32  27  80 SE9       29.68F WCI  24
STERLING       FAIR      28  23  80 SW5       29.64F WCI  23
HOLYOKE        FAIR      28  23  80 SE10      29.68F WCI  19
FORT MORGAN    FAIR      28  19  70 CALM      29.64F
$$

COZ086-089-092>099-231400-
...SOUTHEAST COLORADO...

CITY           SKY/WX    TMP DP  RH WIND       PRES   REMARKS
PUEBLO         FAIR      26  20  77 SE6       29.71F WCI  19
LA JUNTA       FAIR      25  19  78 NW9       29.72S WCI  15
LAMAR          FAIR      34  24  67 SW6       29.71R WCI  29
SPRINGFIELD      N/A     28  22  78 SW8       29.73F WCI  20
$$



USA.gov is the U.S. government's official web portal to all federal, state and local government web resources and services.